C/2017 E1 ( Borisov )

Japanese version
Home page
Updated on April 22, 2017

---------------------------------------------------------------------

* Profile

Discovery Date March 1, 2017
Magnitude 17.0 mag
Discoverer Gennadii Vladimirovich Borisov (Nauchnij, Crimea)

* Pictures

* Orbital Elements

Epoch 2017 Mar. 28.0 TT = JDT 2457840.5
T 2017 Apr. 10.13868 TT                                 MPCW
q   0.9006612            (2000.0)            P               Q
z  -0.0028383      Peri.  152.47289     +0.43485688     +0.88755018
 +/-0.0003156      Node   142.73327     -0.86548978     +0.45859931
e   1.0025564      Incl.   14.55408     -0.24865023     -0.04406072
From 162 observations 2017 Mar. 1-Apr. 7, mean residual 0".7.

* Finding Charts

* Magnitudes Graph

        m1 = 10.5 + 5 log d + 15.0 log r

---------------------------------------------------------------------

The orbital elements are published on M.P.E.C. 2017-H02.
The charts are made with StellaNavigator Ver.10 (AstroArts).
The magnitudes graphs are made with Comet for Windows.

---------------------------------------------------------------------

Copyright(C) Seiichi Yoshida (comet@aerith.net). All rights reserved.